Wind_Speed
5 6 5 5 5 5 5 4 4 4 4 4 4 4 4 3 3 3 3 3 3 3 4 4 4 4 5 5 6 7 7 7 6 6 6 7 7 7 7 7 8 8 8
5 5 5 5 5 4 5 5 4 4 4 4 4 3 3 3 3 3 4 3 4 4 5 5 5 5 6 6 7 8 8 8 8 8 8 8 8 9 9 9 9 9 9
5 4 4 5 5 5 5 4 4 4 4 4 4 4 3 3 3 4 4 4 5 5 6 6 7 7 7 8 8 9 9 10 9 9 9 10 10 10 11 11 11 10 10
3 4 5 5 5 5 5 4 4 4 4 4 5 4 4 3 4 5 5 5 6 6 7 7 7 8 8 9 9 10 10 11 11 11 11 12 12 12 12 12 12 12 12
2 2 4 4 4 5 5 4 4 4 4 5 5 5 4 4 5 5 5 6 7 7 7 7 8 9 10 10 11 11 12 12 12 12 12 12 12 13 13 13 14 14 14
2 2 3 3 4 4 5 5 5 5 5 5 5 5 5 5 6 6 7 7 8 8 9 9 10 10 10 11 11 12 12 12 13 13 13 14 14 14 14 14 15 15 15
1 1 2 2 2 3 4 5 5 5 5 5 5 6 6 6 7 7 8 8 8 9 10 10 10 11 11 11 12 13 13 13 13 14 14 14 15 15 15 15 15 16 16
1 0 1 1 1 2 3 4 4 5 6 7 7 7 7 8 7 8 9 9 10 10 10 11 11 12 12 12 13 13 13 14 14 14 14 15 15 15 15 16 17 17 16
2 1 2 2 2 3 3 4 5 6 6 6 7 7 8 8 9 10 10 10 11 11 11 12 12 12 13 14 14 14 14 14 14 15 15 15 16 16 17 17 17 18 17
4 3 3 3 3 3 4 4 5 6 6 7 7 7 8 9 10 10 11 11 11 11 12 12 13 13 14 15 15 15 15 15 15 15 15 16 16 17 17 17 17 18 18
4 4 4 4 3 4 4 5 6 6 7 7 7 8 8 9 10 11 11 12 12 12 13 13 13 14 14 15 15 15 16 16 16 15 16 16 17 18 18 19 19 19 19
5 5 5 5 5 5 5 6 7 7 8 8 8 9 9 10 11 11 11 12 13 14 14 14 14 15 15 15 15 16 16 16 16 16 17 17 18 18 19 20 20 20 20
7 6 6 6 6 6 7 7 7 9 9 10 10 10 11 11 12 12 12 13 14 14 15 15 15 16 17 17 16 16 17 17 18 18 18 18 19 19 19 19 19 20 20
7 7 7 7 8 8 8 8 8 8 9 10 10 11 11 12 12 13 13 14 14 15 15 15 16 17 17 18 18 18 18 19 19 19 19 19 19 19 20 19 20 20 20
8 8 8 8 8 9 9 9 9 9 10 10 10 11 12 12 13 14 15 16 16 16 16 17 17 17 17 18 18 19 20 20 20 21 20 20 20 20 21 20 21 21 22
10 10 9 9 10 10 10 11 11 11 11 10 10 11 12 13 14 15 15 16 17 17 17 18 18 18 18 18 18 19 20 21 21 21 21 21 22 22 23 23 22 22 23
12 12 11 11 12 12 12 12 11 12 12 11 11 11 12 13 15 16 16 17 17 17 17 18 19 19 19 19 19 19 19 20 21 21 22 22 23 23 23 23 23 24 24
13 13 13 13 13 13 14 14 13 12 12 12 12 13 13 14 14 15 16 16 16 17 17 18 18 20 20 21 20 20 20 21 21 22 22 23 23 23 23 24 25 26 26
14 15 15 15 15 14 14 14 14 15 15 14 14 14 15 15 15 16 16 16 17 17 18 19 19 21 21 21 21 22 22 23 24 24 24 25 25 25 25 25 26 26 27
17 17 16 17 17 17 16 16 16 16 16 16 16 16 16 16 16 17 17 17 18 18 19 20 21 21 22 22 22 23 24 24 25 26 26 26 27 27 27 27 27 28 28
19 18 18 18 18 18 18 18 17 17 18 18 18 18 17 18 18 18 19 19 20 20 21 21 22 22 23 23 24 25 25 25 25 25 26 28 28 28 28 28 28 29 29
20 20 19 19 19 20 20 19 19 18 18 19 19 20 20 20 20 21 21 21 22 23 23 23 24 24 25 25 25 26 26 25 25 26 27 27 28 29 29 29 29 30 30
23 22 21 21 21 21 22 21 21 21 21 20 21 21 22 22 23 23 24 23 24 25 25 25 25 26 26 26 27 27 27 27 27 27 28 29 30 30 30 31 31 32 32
26 25 24 24 23 23 23 23 23 24 24 24 23 24 25 25 26 26 26 26 26 26 26 27 27 28 28 28 28 28 28 29 29 29 30 30 31 31 32 32 33 33 33
28 26 26 25 25 25 25 25 25 26 26 26 26 26 27 27 28 28 28 27 28 28 28 28 29 28 28 28 28 29 30 30 31 31 31 32 32 33 33 33 33 34 34
29 29 27 26 26 27 27 27 27 27 27 28 28 29 29 29 29 29 29 30 30 30 30 29 29 30 30 30 30 31 32 33 33 33 33 34 34 35 34 34 34 34 34
Wind_Direction
155 156 161 160 157 161 162 165 165 164 163 158 159 162 162 164 175 194 208 218 228 232 238 245 253 253 255 254 255 257 260 266 266 260 258 262 264 268 269 269 272 277 277
162 168 170 171 175 175 173 171 165 174 174 174 180 180 183 194 207 224 229 233 240 245 249 256 262 264 263 262 262 267 269 272 268 262 260 266 268 268 270 271 273 277 277
174 178 180 181 183 179 176 175 180 186 188 192 200 201 208 224 235 240 243 246 254 260 262 265 267 266 266 268 269 269 272 275 270 266 265 268 270 272 273 273 274 277 277
176 184 182 182 184 187 186 187 192 195 201 210 212 212 222 241 248 252 253 256 262 265 267 266 267 268 267 268 268 271 272 273 273 270 269 271 272 274 273 272 272 273 273
143 161 185 186 193 198 200 202 204 209 218 224 222 224 237 251 257 260 260 263 265 268 268 267 269 272 271 270 273 275 273 274 274 274 276 276 276 276 276 273 272 271 272
137 148 177 192 199 203 206 211 217 223 234 233 233 242 253 262 269 269 271 271 270 271 270 271 271 273 275 276 279 280 275 277 276 275 275 277 279 281 279 278 275 274 274
123 143 179 200 202 206 216 219 222 227 238 246 248 255 264 272 277 272 274 276 274 272 272 273 275 276 276 277 280 280 278 278 278 275 274 275 277 280 280 279 278 277 277
81 70 294 256 234 227 225 229 234 236 241 247 252 259 268 275 280 278 277 279 279 275 275 276 278 280 280 278 280 280 281 280 279 276 273 274 276 277 277 277 276 277 276
10 313 303 308 282 255 246 250 249 250 256 257 257 259 264 270 276 279 277 279 281 279 277 278 280 282 280 280 282 282 282 281 283 281 277 276 278 278 275 277 277 273 274
357 340 333 330 286 269 263 263 263 263 264 264 266 270 275 277 278 281 282 282 282 282 280 279 280 281 281 281 281 282 281 281 280 280 279 279 278 278 276 276 277 275 274
346 343 328 319 313 283 269 270 271 272 273 271 272 276 280 283 281 281 282 282 283 283 284 282 281 281 281 281 280 281 280 279 279 279 281 281 280 280 280 277 276 277 276
347 327 322 309 298 292 281 276 275 273 275 274 274 276 279 283 283 282 280 280 280 282 284 284 284 282 281 281 278 277 278 279 279 278 280 282 282 281 281 278 277 277 276
344 336 318 313 302 297 294 286 279 274 273 275 277 280 281 282 283 282 281 281 281 282 283 284 285 284 282 280 279 278 278 279 279 279 279 281 281 282 280 279 278 277 277
341 339 330 319 309 302 299 296 288 280 278 278 280 283 285 286 286 284 282 283 283 283 285 286 287 285 283 282 279 278 278 280 281 280 279 280 281 282 281 278 278 279 279
335 331 322 316 310 303 297 294 291 289 285 281 281 283 285 289 290 289 286 284 284 284 285 285 286 286 285 284 280 279 279 280 281 280 279 279 281 282 281 279 278 278 279
321 320 317 312 307 301 297 295 289 290 286 285 285 286 288 289 292 292 291 288 286 285 285 285 286 288 289 290 285 282 282 280 281 282 281 280 281 282 281 278 278 278 280
316 311 308 307 304 303 302 300 295 291 287 287 291 294 294 291 292 293 292 291 289 286 285 286 286 288 289 289 287 287 287 285 283 284 283 281 281 282 283 281 280 280 281
316 313 308 303 301 299 300 298 293 290 287 288 290 291 293 296 296 297 297 296 294 291 288 288 288 288 287 288 287 286 285 286 286 284 283 281 281 282 283 283 281 281 282
311 310 308 304 302 300 298 300 297 290 286 285 287 290 292 294 296 298 299 299 297 295 290 288 289 288 288 288 287 288 287 284 283 282 283 283 282 281 282 284 283 283 284
302 301 303 304 300 298 294 293 296 293 287 285 286 288 290 292 294 295 297 298 297 296 294 293 291 290 290 289 287 288 289 286 284 283 283 283 283 283 283 284 284 284 284
302 298 299 302 297 297 295 289 290 290 286 284 284 285 286 288 291 292 293 295 296 296 295 294 293 293 293 290 288 287 288 287 287 287 286 284 284 284 284 282 283 284 284
295 297 294 294 294 294 296 292 286 286 286 285 284 283 283 285 288 289 290 292 294 295 294 293 293 292 292 291 290 291 291 289 289 289 288 286 285 285 282 282 283 284 285
291 292 292 292 291 290 290 289 283 280 281 284 284 283 284 284 286 288 288 289 293 295 294 292 291 292 291 290 289 290 288 288 289 289 288 288 287 285 283 283 284 284 285
287 286 288 290 288 288 287 287 283 280 278 280 282 283 283 283 284 284 285 287 290 292 292 292 291 291 291 291 292 291 289 288 288 288 287 287 287 287 285 284 284 285 285
284 283 286 286 285 284 286 285 283 283 280 277 278 281 282 281 281 282 283 286 288 289 290 291 291 291 291 291 291 291 290 289 289 288 287 287 287 287 286 286 286 287 287
280 280 282 284 286 284 285 287 284 281 280 277 277 279 280 281 281 280 281 284 285 287 288 289 290 291 292 293 292 291 291 291 290 289 288 288 288 288 287 287 287 287 287
Height
5889 5890 5890 5891 5891 5892 5893 5893 5894 5895 5896 5896 5897 5898 5898 5899 5899 5900 5900 5901 5901 5901 5901 5901 5901 5901 5902 5902 5902 5902 5902 5902 5902 5902 5902 5902 5902 5902 5902 5902 5902 5902 5902
5890 5890 5891 5891 5892 5892 5893 5893 5894 5895 5896 5896 5897 5898 5898 5899 5899 5900 5900 5900 5900 5900 5900 5900 5900 5900 5900 5901 5900 5900 5900 5900 5900 5900 5901 5901 5901 5901 5900 5900 5900 5900 5900
5890 5890 5891 5891 5892 5892 5893 5893 5894 5895 5895 5896 5897 5897 5898 5898 5899 5899 5899 5899 5899 5899 5899 5899 5899 5899 5899 5899 5899 5899 5898 5898 5898 5898 5899 5899 5899 5898 5898 5898 5898 5898 5897
5890 5890 5891 5891 5892 5892 5893 5893 5894 5894 5895 5896 5896 5897 5897 5897 5898 5898 5898 5898 5898 5898 5898 5898 5898 5898 5898 5897 5897 5897 5897 5896 5896 5896 5896 5896 5896 5896 5896 5895 5895 5895 5895
5890 5890 5890 5891 5891 5892 5893 5893 5893 5894 5894 5895 5895 5896 5896 5896 5897 5896 5896 5896 5896 5896 5896 5896 5896 5896 5896 5896 5895 5895 5894 5894 5893 5893 5893 5893 5893 5893 5893 5892 5892 5892 5892
5890 5890 5890 5891 5891 5891 5892 5892 5893 5893 5893 5894 5894 5895 5895 5895 5895 5895 5895 5895 5895 5895 5895 5894 5894 5894 5893 5893 5893 5892 5892 5891 5890 5890 5890 5890 5890 5890 5889 5889 5889 5889 5888
5890 5890 5890 5891 5891 5891 5891 5892 5892 5892 5893 5893 5893 5894 5894 5894 5894 5894 5893 5893 5893 5893 5892 5892 5892 5891 5891 5891 5890 5890 5889 5888 5888 5887 5887 5887 5887 5886 5886 5886 5885 5885 5884
5890 5890 5890 5890 5890 5890 5891 5891 5891 5891 5892 5892 5892 5892 5892 5893 5892 5892 5891 5891 5891 5891 5890 5890 5890 5889 5888 5888 5887 5887 5886 5886 5885 5884 5884 5884 5883 5883 5882 5882 5882 5881 5880
5890 5890 5890 5890 5890 5890 5890 5890 5890 5890 5891 5891 5890 5891 5891 5891 5890 5890 5889 5889 5889 5888 5888 5888 5887 5886 5885 5885 5884 5884 5883 5883 5882 5881 5881 5880 5879 5879 5878 5878 5877 5877 5876
5890 5890 5889 5889 5889 5889 5889 5889 5889 5889 5889 5889 5889 5889 5889 5888 5888 5888 5887 5886 5886 5885 5885 5885 5884 5883 5882 5881 5881 5880 5880 5879 5879 5878 5877 5876 5876 5875 5874 5874 5873 5872 5872
5890 5889 5889 5888 5888 5887 5888 5888 5888 5887 5887 5887 5886 5886 5886 5886 5885 5885 5884 5883 5883 5882 5882 5881 5881 5880 5879 5878 5877 5876 5876 5875 5875 5874 5873 5872 5872 5871 5870 5869 5869 5868 5868
5889 5889 5888 5887 5887 5886 5886 5886 5885 5885 5885 5884 5884 5884 5883 5883 5882 5881 5881 5880 5879 5879 5878 5877 5876 5876 5874 5874 5873 5872 5872 5871 5871 5870 5869 5868 5867 5866 5866 5865 5864 5863 5863
5888 5887 5887 5886 5885 5885 5884 5883 5883 5883 5882 5882 5881 5881 5880 5879 5879 5878 5878 5877 5876 5875 5874 5873 5872 5871 5870 5869 5869 5868 5868 5867 5866 5865 5865 5864 5863 5862 5861 5860 5859 5858 5857
5887 5886 5885 5884 5883 5883 5882 5881 5881 5880 5879 5879 5878 5878 5877 5876 5876 5875 5874 5873 5872 5871 5870 5869 5868 5867 5866 5865 5864 5864 5863 5862 5861 5861 5860 5859 5858 5857 5856 5855 5854 5853 5852
5887 5885 5884 5883 5882 5881 5880 5879 5878 5877 5877 5876 5875 5875 5874 5873 5872 5872 5870 5870 5869 5868 5867 5865 5864 5863 5862 5861 5859 5859 5858 5857 5856 5855 5855 5854 5853 5852 5851 5850 5849 5848 5847
5885 5884 5882 5881 5880 5879 5877 5876 5875 5874 5873 5873 5872 5871 5871 5870 5869 5868 5867 5866 5864 5864 5862 5861 5860 5858 5857 5856 5855 5854 5853 5852 5851 5850 5849 5848 5847 5846 5845 5844 5843 5842 5841
5883 5882 5880 5879 5877 5876 5875 5874 5872 5871 5870 5870 5869 5868 5867 5866 5865 5864 5863 5862 5860 5858 5857 5857 5855 5854 5852 5851 5850 5849 5847 5846 5845 5844 5843 5842 5841 5840 5839 5838 5837 5836 5835
5881 5879 5878 5876 5874 5873 5872 5871 5869 5868 5867 5866 5865 5865 5864 5863 5862 5860 5859 5857 5856 5854 5853 5852 5851 5849 5847 5846 5845 5843 5842 5841 5839 5838 5837 5836 5835 5834 5833 5832 5830 5829 5828
5878 5876 5875 5873 5871 5870 5868 5867 5866 5864 5863 5862 5861 5861 5860 5859 5858 5856 5855 5853 5852 5850 5849 5847 5846 5844 5842 5840 5839 5838 5836 5835 5833 5832 5831 5829 5828 5827 5826 5825 5824 5822 5821
5874 5872 5871 5870 5868 5866 5864 5863 5861 5860 5859 5858 5857 5856 5855 5854 5853 5852 5850 5849 5847 5845 5844 5842 5840 5839 5837 5835 5833 5832 5830 5828 5827 5825 5824 5823 5821 5820 5819 5818 5817 5815 5814
5870 5868 5867 5865 5863 5862 5860 5859 5857 5855 5854 5853 5852 5851 5850 5849 5848 5847 5846 5844 5842 5840 5839 5837 5835 5833 5831 5829 5828 5826 5824 5822 5820 5819 5817 5816 5814 5813 5812 5810 5809 5808 5806
5865 5863 5862 5860 5858 5857 5855 5853 5852 5850 5849 5848 5847 5846 5845 5844 5843 5841 5840 5838 5837 5835 5833 5831 5829 5827 5825 5823 5821 5819 5817 5816 5814 5812 5810 5809 5807 5805 5804 5802 5801 5799 5798
5859 5857 5856 5854 5853 5851 5849 5847 5846 5845 5844 5842 5841 5840 5839 5838 5837 5835 5834 5832 5830 5829 5827 5825 5823 5821 5818 5816 5814 5812 5810 5808 5806 5805 5803 5801 5799 5797 5795 5794 5792 5790 5789
5854 5851 5849 5847 5846 5844 5843 5841 5839 5838 5837 5836 5835 5834 5832 5831 5830 5828 5827 5825 5824 5822 5820 5818 5816 5814 5811 5809 5807 5805 5803 5801 5799 5797 5795 5793 5791 5788 5786 5785 5783 5781 5779
5846 5844 5842 5840 5839 5837 5836 5834 5832 5831 5830 5829 5828 5826 5825 5823 5822 5821 5820 5818 5816 5815 5813 5810 5808 5806 5804 5801 5799 5797 5795 5793 5791 5789 5786 5784 5782 5780 5778 5775 5773 5771 5769
5838 5836 5835 5833 5831 5830 5828 5827 5825 5823 5822 5820 5819 5818 5817 5816 5814 5813 5812 5810 5808 5807 5805 5803 5800 5798 5796 5793 5791 5789 5787 5785 5782 5780 5777 5775 5773 5770 5768 5766 5764 5762 5759